| time (UTC) | temp F | wind direction | speed MPH | gust MPH | rain 1hr in | rain 24hr in | rain mn in | humidity % | barometer mb |
| 20260903200535 | 82 | 186 | 4.0 | 10.0 | 0.00 | 0.05 | 0.05 | 77 | 1014.1 |
| 20260903200036 | 83 | 169 | 6.0 | 10.0 | 0.00 | 0.05 | 0.05 | 75 | 1014.0 |
| 20260903195517 | 84 | 163 | 4.0 | 9.0 | 0.00 | 0.05 | 0.05 | 74 | 1014.0 |
| 20260903195037 | 84 | 128 | 2.0 | 11.0 | 0.00 | 0.05 | 0.05 | 76 | 1013.9 |
| 20260903194527 | 84 | 112 | 4.0 | 11.0 | 0.00 | 0.05 | 0.05 | 76 | 1014.0 |
| 20260903194019 | 84 | 150 | 3.0 | 6.0 | 0.00 | 0.05 | 0.05 | 78 | 1014.1 |
| 20260903193516 | 83 | 198 | 3.0 | 8.0 | 0.00 | 0.05 | 0.05 | 78 | 1014.1 |
| 20260903193037 | 82 | 130 | 2.0 | 7.0 | 0.00 | 0.05 | 0.05 | 79 | 1014.1 |
| 20260903192519 | 81 | 162 | 2.0 | 6.0 | 0.00 | 0.05 | 0.05 | 78 | 1014.1 |
| 20260903192034 | 81 | 163 | 4.0 | 9.0 | 0.00 | 0.05 | 0.05 | 78 | 1014.1 |
| 20260903191531 | 81 | 161 | 6.0 | 9.0 | 0.00 | 0.05 | 0.05 | 78 | 1014.2 |
| 20260903191037 | 82 | 207 | 2.0 | 9.0 | 0.00 | 0.05 | 0.05 | 77 | 1014.2 |
| 20260903190530 | 83 | 148 | 3.0 | 9.0 | 0.00 | 0.05 | 0.05 | 73 | 1014.3 |
| 20260903190048 | 83 | 95 | 4.0 | 9.0 | 0.00 | 0.05 | 0.05 | 78 | 1014.4 |
| 20260903185542 | 83 | 118 | 3.0 | 7.0 | 0.00 | 0.05 | 0.05 | 76 | 1014.4 |
| 20260903185035 | 82 | 199 | 2.0 | 7.0 | 0.00 | 0.05 | 0.05 | 78 | 1014.4 |
| 20260903184523 | 81 | 153 | 3.0 | 9.0 | 0.00 | 0.05 | 0.05 | 80 | 1014.5 |
| 20260903184019 | 81 | 168 | 3.0 | 6.0 | 0.00 | 0.05 | 0.05 | 79 | 1014.6 |
| 20260903183530 | 81 | 123 | 3.0 | 7.0 | 0.00 | 0.05 | 0.05 | 84 | 1014.6 |
| 20260903183021 | 79 | 162 | 3.0 | 7.0 | 0.00 | 0.05 | 0.05 | 85 | 1014.7 |
| 20260903182516 | 78 | 124 | 3.0 | 4.0 | 0.00 | 0.05 | 0.05 | 82 | 1014.8 |
| 20260903182035 | 78 | 119 | 2.0 | 4.0 | 0.00 | 0.05 | 0.05 | 82 | 1015.0 |
| 20260903181535 | 78 | 115 | 2.0 | 7.0 | 0.00 | 0.05 | 0.05 | 82 | 1015.1 |
| 20260903181028 | 78 | 97 | 3.0 | 7.0 | 0.00 | 0.05 | 0.05 | 82 | 1015.1 |
| 20260903180519 | 78 | 82 | 2.0 | 7.0 | 0.00 | 0.05 | 0.05 | 84 | 1015.3 |
| 20260903180028 | 77 | 63 | 2.0 | 6.0 | 0.00 | 0.05 | 0.05 | 84 | 1015.1 |
| 20260903175545 | 77 | 107 | 3.0 | 7.0 | 0.00 | 0.05 | 0.05 | 83 | 1015.3 |
| 20260903175020 | 77 | 110 | 4.0 | 7.0 | 0.00 | 0.05 | 0.05 | 83 | 1015.4 |
| 20260903174534 | 77 | 26 | 4.0 | 7.0 | 0.00 | 0.05 | 0.05 | 83 | 1015.4 |
| 20260903174017 | 77 | 122 | 3.0 | 6.0 | 0.00 | 0.05 | 0.05 | 84 | 1015.3 |
| 20260903173532 | 77 | 101 | 5.0 | 8.0 | 0.00 | 0.05 | 0.05 | 83 | 1015.3 |
| 20260903173023 | 77 | 118 | 3.0 | 9.0 | 0.00 | 0.05 | 0.05 | 83 | 1015.4 |
| 20260903172519 | 78 | 114 | 5.0 | 9.0 | 0.00 | 0.05 | 0.05 | 82 | 1015.3 |
| 20260903172037 | 78 | 117 | 3.0 | 9.0 | 0.00 | 0.05 | 0.05 | 84 | 1015.1 |
| 20260903171532 | 77 | 107 | 5.0 | 10.0 | 0.00 | 0.05 | 0.05 | 84 | 1015.0 |
| 20260903171046 | 77 | 106 | 3.0 | 10.0 | 0.00 | 0.05 | 0.05 | 85 | 1015.0 |
| 20260903170521 | 76 | 99 | 6.0 | 8.0 | 0.00 | 0.05 | 0.05 | 87 | 1015.0 |
| 20260903170024 | 75 | 110 | 3.0 | 6.0 | 0.00 | 0.05 | 0.05 | 87 | 1015.2 |
| 20260903165520 | 75 | 110 | 1.0 | 6.0 | 0.00 | 0.05 | 0.05 | 86 | 1015.4 |
| 20260903165032 | 75 | 110 | 3.0 | 6.0 | 0.00 | 0.05 | 0.05 | 87 | 1015.2 |
| 20260903164519 | 75 | 110 | 2.0 | 8.0 | 0.00 | 0.05 | 0.05 | 87 | 1015.3 |
| 20260903164031 | 75 | 104 | 3.0 | 10.0 | 0.00 | 0.05 | 0.05 | 87 | 1015.4 |
| 20260903163516 | 75 | 115 | 6.0 | 10.0 | 0.00 | 0.05 | 0.05 | 87 | 1015.1 |
| 20260903163027 | 75 | 131 | 4.0 | 8.0 | 0.00 | 0.05 | 0.05 | 88 | 1015.2 |
| 20260903162540 | 75 | 113 | 1.0 | 6.0 | 0.00 | 0.05 | 0.05 | 88 | 1015.1 |
| 20260903162035 | 75 | 67 | 2.0 | 8.0 | 0.00 | 0.05 | 0.05 | 89 | 1015.1 |
| 20260903161533 | 75 | 81 | 4.0 | 8.0 | 0.00 | 0.05 | 0.05 | 90 | 1015.2 |
| 20260903161028 | 74 | 98 | 4.0 | 7.0 | 0.00 | 0.05 | 0.05 | 89 | 1015.3 |
| 20260903160521 | 74 | 128 | 3.0 | 5.0 | 0.00 | 0.05 | 0.05 | 89 | 1015.1 |
| 20260903160047 | 74 | 168 | 3.0 | 6.0 | 0.00 | 0.05 | 0.05 | 90 | 1015.2 |
| 20260903155522 | 74 | 163 | 2.0 | 6.0 | 0.00 | 0.05 | 0.05 | 90 | 1014.9 |
| 20260903155018 | 74 | 162 | 3.0 | 7.0 | 0.00 | 0.05 | 0.05 | 90 | 1014.8 |
| 20260903154528 | 73 | 97 | 3.0 | 7.0 | 0.00 | 0.05 | 0.05 | 90 | 1014.7 |
| 20260903154043 | 73 | 117 | 3.0 | 5.0 | 0.02 | 0.05 | 0.05 | 90 | 1014.6 |
| 20260903153532 | 73 | 116 | 3.0 | 6.0 | 0.04 | 0.05 | 0.05 | 91 | 1014.6 |
| 20260903153019 | 72 | 36 | 1.0 | 5.0 | 0.05 | 0.05 | 0.05 | 91 | 1014.8 |
| 20260903152553 | 72 | 36 | 4.0 | 7.0 | 0.05 | 0.05 | 0.05 | 90 | 1014.6 |
| 20260903151534 | 71 | 69 | 4.0 | 8.0 | 0.05 | 0.05 | 0.05 | 90 | 1014.5 |
| 20260903151046 | 71 | 56 | 2.0 | 5.0 | 0.05 | 0.05 | 0.05 | 89 | 1015.2 |
| 20260903150542 | 71 | 59 | 2.0 | 9.0 | 0.05 | 0.05 | 0.05 | 89 | 1015.5 |
| 20260903150037 | 71 | 311 | 2.0 | 9.0 | 0.05 | 0.05 | 0.05 | 88 | 1016.0 |
| 20260903145553 | 72 | 346 | 4.0 | 11.0 | 0.05 | 0.05 | 0.05 | 88 | 1016.1 |
| 20260903145021 | 72 | 290 | 5.0 | 14.0 | 0.05 | 0.05 | 0.05 | 87 | 1016.2 |
| 20260903144529 | 72 | 312 | 8.0 | 19.0 | 0.04 | 0.04 | 0.04 | 86 | 1016.4 |
| 20260903144046 | 73 | 340 | 12.0 | 19.0 | 0.02 | 0.02 | 0.02 | 85 | 1016.2 |
| 20260903143520 | 73 | 279 | 10.0 | 18.0 | 0.00 | 0.00 | 0.00 | 85 | 1016.8 |
| 20260903143042 | 74 | 254 | 8.0 | 17.0 | 0.00 | 0.00 | 0.00 | 84 | 1016.6 |
| 20260903142532 | 74 | 232 | 10.0 | 17.0 | 0.00 | 0.00 | 0.00 | 84 | 1016.4 |
| 20260903142038 | 74 | 236 | 9.0 | 21.0 | 0.00 | 0.00 | 0.00 | 84 | 1016.1 |
| 20260903141525 | 74 | 272 | 11.0 | 23.0 | 0.00 | 0.00 | 0.00 | 84 | 1015.9 |
| 20260903141021 | 75 | 316 | 12.0 | 24.0 | 0.00 | 0.00 | 0.00 | 84 | 1016.2 |
| 20260903140516 | 75 | 276 | 15.0 | 27.0 | 0.00 | 0.00 | 0.00 | 84 | 1016.3 |
| 20260903140054 | 76 | 340 | 14.0 | 30.0 | 0.00 | 0.00 | 0.00 | 84 | 1016.2 |
| 20260903135526 | 76 | 264 | 16.0 | 30.0 | 0.00 | 0.00 | 0.00 | 85 | 1016.4 |
| 20260903135041 | 76 | 288 | 16.0 | 28.0 | 0.00 | 0.00 | 0.00 | 87 | 1016.2 |
| 20260903134525 | 76 | 293 | 14.0 | 28.0 | 0.00 | 0.00 | 0.00 | 89 | 1015.8 |
| 20260903134041 | 76 | 241 | 11.0 | 16.0 | 0.00 | 0.00 | 0.00 | 91 | 1015.5 |
| 20260903133532 | 76 | 237 | 8.0 | 14.0 | 0.00 | 0.00 | 0.00 | 91 | 1015.2 |
| 20260903133028 | 76 | 252 | 8.0 | 14.0 | 0.00 | 0.00 | 0.00 | 92 | 1015.3 |
| 20260903132523 | 76 | 261 | 5.0 | 7.0 | 0.00 | 0.00 | 0.00 | 92 | 1014.9 |
| 20260903132018 | 76 | 221 | 3.0 | 4.0 | 0.00 | 0.00 | 0.00 | 92 | 1014.6 |
| 20260903131536 | 76 | 300 | 2.0 | 4.0 | 0.00 | 0.00 | 0.00 | 92 | 1014.6 |
| 20260903131025 | 76 | 300 | 3.0 | 4.0 | 0.00 | 0.00 | 0.00 | 92 | 1014.3 |
| 20260903130518 | 75 | 300 | 3.0 | 4.0 | 0.00 | 0.00 | 0.00 | 93 | 1014.3 |
| 20260903130030 | 75 | 300 | 0.0 | 2.0 | 0.00 | 0.00 | 0.00 | 93 | 1014.3 |
| 20260903125526 | 75 | 300 | 0.0 | 3.0 | 0.00 | 0.00 | 0.00 | 93 | 1014.4 |
| 20260903125040 | 75 | 300 | 0.0 | 4.0 | 0.00 | 0.00 | 0.00 | 93 | 1014.4 |
| 20260903124532 | 75 | 300 | 1.0 | 4.0 | 0.00 | 0.00 | 0.00 | 93 | 1014.3 |
| 20260903124037 | 75 | 300 | 3.0 | 12.0 | 0.00 | 0.00 | 0.00 | 93 | 1014.6 |
| 20260903123529 | 75 | 317 | 8.0 | 15.0 | 0.00 | 0.00 | 0.00 | 93 | 1014.7 |
| 20260903123054 | 75 | 15 | 11.0 | 15.0 | 0.00 | 0.00 | 0.00 | 93 | 1014.6 |
| 20260903122528 | 75 | 311 | 4.0 | 8.0 | 0.00 | 0.00 | 0.00 | 93 | 1014.1 |
| 20260903122026 | 75 | 224 | 6.0 | 8.0 | 0.00 | 0.00 | 0.00 | 93 | 1013.8 |
| 20260903121531 | 75 | 211 | 6.0 | 8.0 | 0.00 | 0.00 | 0.00 | 94 | 1013.5 |
| 20260903121037 | 75 | 230 | 5.0 | 9.0 | 0.00 | 0.00 | 0.00 | 94 | 1013.4 |
| 20260903120531 | 75 | 213 | 6.0 | 9.0 | 0.00 | 0.00 | 0.00 | 94 | 1013.3 |
| 20260903120022 | 75 | 213 | 6.0 | 9.0 | 0.00 | 0.00 | 0.00 | 94 | 1013.4 |
| 20260903115519 | 75 | 227 | 6.0 | 9.0 | 0.00 | 0.00 | 0.00 | 94 | 1013.3 |
| 20260903115032 | 75 | 210 | 5.0 | 7.0 | 0.00 | 0.00 | 0.00 | 94 | 1013.3 |
| 20260903114519 | 75 | 200 | 4.0 | 8.0 | 0.00 | 0.00 | 0.00 | 94 | 1013.3 |
| 20260903114031 | 75 | 241 | 4.0 | 7.0 | 0.00 | 0.00 | 0.00 | 95 | 1013.3 |
| 20260903113519 | 75 | 223 | 4.0 | 7.0 | 0.00 | 0.00 | 0.00 | 95 | 1013.3 |
| 20260903113037 | 74 | 221 | 4.0 | 7.0 | 0.00 | 0.00 | 0.00 | 95 | 1013.3 |
| 20260903112530 | 74 | 223 | 4.0 | 7.0 | 0.00 | 0.00 | 0.00 | 95 | 1013.3 |
| 20260903112041 | 74 | 210 | 5.0 | 8.0 | 0.00 | 0.00 | 0.00 | 95 | 1013.9 |
| 20260903111549 | 74 | 214 | 5.0 | 8.0 | 0.00 | 0.00 | 0.00 | 95 | 1013.3 |
| 20260903111024 | 74 | 208 | 5.0 | 7.0 | 0.00 | 0.00 | 0.00 | 95 | 1013.2 |
| 20260903110521 | 74 | 214 | 5.0 | 7.0 | 0.00 | 0.00 | 0.00 | 95 | 1013.1 |
| 20260903110021 | 74 | 198 | 5.0 | 8.0 | 0.00 | 0.00 | 0.00 | 95 | 1013.1 |
| 20260903105552 | 74 | 207 | 5.0 | 8.0 | 0.00 | 0.00 | 0.00 | 96 | 1013.2 |
| 20260903105016 | 74 | 211 | 5.0 | 8.0 | 0.00 | 0.00 | 0.00 | 96 | 1013.2 |
| 20260903104526 | 74 | 227 | 5.0 | 6.0 | 0.00 | 0.00 | 0.00 | 96 | 1013.2 |
| 20260903104018 | 73 | 227 | 4.0 | 6.0 | 0.00 | 0.00 | 0.00 | 96 | 1013.3 |
| 20260903103534 | 73 | 227 | 4.0 | 6.0 | 0.00 | 0.00 | 0.00 | 96 | 1013.3 |
| 20260903103031 | 72 | 227 | 3.0 | 5.0 | 0.00 | 0.00 | 0.00 | 96 | 1013.3 |
| 20260903102536 | 71 | 227 | 3.0 | 5.0 | 0.00 | 0.00 | 0.00 | 95 | 1013.3 |
| 20260903102051 | 71 | 227 | 1.0 | 2.0 | 0.00 | 0.00 | 0.00 | 95 | 1013.2 |
| 20260903101530 | 71 | 227 | 1.0 | 2.0 | 0.00 | 0.00 | 0.00 | 95 | 1013.2 |
| 20260903101028 | 71 | 227 | 0.0 | 1.0 | 0.00 | 0.00 | 0.00 | 95 | 1013.3 |
| 20260903100557 | 71 | 227 | 0.0 | 1.0 | 0.00 | 0.00 | 0.00 | 95 | 1013.2 |
| 20260903100024 | 71 | 227 | 0.0 | 1.0 | 0.00 | 0.00 | 0.00 | 95 | 1013.2 |
| 20260903095520 | 71 | 227 | 0.0 | 0.0 | 0.00 | 0.00 | 0.00 | 95 | 1013.2 |
| 20260903095035 | 71 | 227 | 0.0 | 0.0 | 0.00 | 0.00 | 0.00 | 95 | 1013.2 |
| 20260903094536 | 71 | 227 | 0.0 | 0.0 | 0.00 | 0.00 | 0.00 | 95 | 1013.1 |
| 20260903094031 | 71 | 227 | 0.0 | 0.0 | 0.00 | 0.00 | 0.00 | 95 | 1013.3 |
| 20260903093521 | 71 | 227 | 0.0 | 0.0 | 0.00 | 0.00 | 0.00 | 95 | 1013.3 |
| 20260903093031 | 71 | 227 | 0.0 | 0.0 | 0.00 | 0.00 | 0.00 | 95 | 1013.3 |
| 20260903092526 | 71 | 227 | 0.0 | 0.0 | 0.00 | 0.00 | 0.00 | 95 | 1013.2 |
| 20260903092020 | 71 | 227 | 0.0 | 0.0 | 0.00 | 0.00 | 0.00 | 95 | 1013.3 |
| 20260903091537 | 71 | 227 | 0.0 | 0.0 | 0.00 | 0.00 | 0.00 | 95 | 1013.2 |
| 20260903091027 | 71 | 227 | 0.0 | 0.0 | 0.00 | 0.00 | 0.00 | 95 | 1013.2 |
| 20260903090543 | 71 | 227 | 0.0 | 0.0 | 0.00 | 0.00 | 0.00 | 95 | 1013.3 |
| 20260903090045 | 71 | 227 | 0.0 | 0.0 | 0.00 | 0.00 | 0.00 | 95 | 1013.2 |
| 20260903085518 | 71 | 227 | 0.0 | 0.0 | 0.00 | 0.00 | 0.00 | 95 | 1013.1 |
| 20260903085021 | 71 | 227 | 0.0 | 0.0 | 0.00 | 0.00 | 0.00 | 95 | 1013.1 |
| 20260903084535 | 71 | 227 | 0.0 | 0.0 | 0.00 | 0.00 | 0.00 | 95 | 1013.1 |
| 20260903084031 | 71 | 227 | 0.0 | 0.0 | 0.00 | 0.00 | 0.00 | 95 | 1013.2 |
| 20260903083537 | 71 | 227 | 0.0 | 0.0 | 0.00 | 0.00 | 0.00 | 95 | 1013.1 |
| 20260903083025 | 71 | 227 | 0.0 | 0.0 | 0.00 | 0.00 | 0.00 | 95 | 1013.2 |
| 20260903082521 | 71 | 227 | 0.0 | 0.0 | 0.00 | 0.00 | 0.00 | 95 | 1013.2 |
| 20260903082032 | 71 | 227 | 0.0 | 0.0 | 0.00 | 0.00 | 0.00 | 95 | 1013.2 |
| 20260903081523 | 71 | 227 | 0.0 | 0.0 | 0.00 | 0.00 | 0.00 | 94 | 1013.2 |
| 20260903081017 | 71 | 227 | 0.0 | 0.0 | 0.00 | 0.00 | 0.00 | 94 | 1013.2 |
| 20260903080533 | 71 | 227 | 0.0 | 0.0 | 0.00 | 0.00 | 0.00 | 94 | 1013.3 |
| 20260903080032 | 71 | 227 | 0.0 | 0.0 | 0.00 | 0.00 | 0.00 | 94 | 1013.3 |
| 20260903075526 | 71 | 227 | 0.0 | 0.0 | 0.00 | 0.00 | 0.00 | 94 | 1013.3 |
| 20260903075034 | 71 | 227 | 0.0 | 0.0 | 0.00 | 0.00 | 0.00 | 94 | 1013.3 |
| 20260903074535 | 71 | 227 | 0.0 | 0.0 | 0.00 | 0.00 | 0.00 | 94 | 1013.3 |
| 20260903074029 | 71 | 227 | 0.0 | 0.0 | 0.00 | 0.00 | 0.00 | 94 | 1013.2 |
| 20260903073523 | 72 | 227 | 0.0 | 0.0 | 0.00 | 0.00 | 0.00 | 94 | 1013.4 |
| 20260903073030 | 72 | 227 | 0.0 | 0.0 | 0.00 | 0.00 | 0.00 | 94 | 1013.3 |
| 20260903072521 | 72 | 227 | 0.0 | 0.0 | 0.00 | 0.00 | 0.00 | 94 | 1013.4 |
| 20260903072055 | 72 | 227 | 0.0 | 0.0 | 0.00 | 0.00 | 0.00 | 94 | 1013.5 |
| 20260903071531 | 72 | 227 | 0.0 | 0.0 | 0.00 | 0.00 | 0.00 | 94 | 1013.4 |
| 20260903071025 | 72 | 227 | 0.0 | 0.0 | 0.00 | 0.00 | 0.00 | 94 | 1013.5 |
| 20260903070523 | 72 | 227 | 0.0 | 0.0 | 0.00 | 0.00 | 0.00 | 94 | 1013.5 |
| 20260903070019 | 72 | 227 | 0.0 | 0.0 | 0.00 | 0.00 | 0.00 | 94 | 1013.7 |
| 20260903065558 | 72 | 227 | 0.0 | 0.0 | 0.00 | 0.00 | 0.00 | 94 | 1013.8 |
| 20260903065031 | 72 | 227 | 0.0 | 0.0 | 0.00 | 0.00 | 0.00 | 95 | 1013.7 |
| 20260903064529 | 72 | 227 | 0.0 | 0.0 | 0.00 | 0.00 | 0.00 | 95 | 1013.7 |
| 20260903064045 | 72 | 227 | 0.0 | 0.0 | 0.00 | 0.00 | 0.00 | 95 | 1013.8 |
| 20260903063534 | 72 | 227 | 0.0 | 0.0 | 0.00 | 0.00 | 0.00 | 95 | 1013.9 |
| 20260903063023 | 72 | 227 | 0.0 | 0.0 | 0.00 | 0.00 | 0.00 | 95 | 1013.8 |
| 20260903062521 | 72 | 227 | 0.0 | 0.0 | 0.00 | 0.00 | 0.00 | 95 | 1013.9 |
| 20260903062018 | 72 | 227 | 0.0 | 0.0 | 0.00 | 0.00 | 0.00 | 95 | 1013.8 |
| 20260903061537 | 72 | 227 | 0.0 | 0.0 | 0.00 | 0.00 | 0.00 | 95 | 1013.9 |
| 20260903061022 | 72 | 227 | 0.0 | 0.0 | 0.00 | 0.00 | 0.00 | 95 | 1013.9 |
| 20260903060555 | 72 | 227 | 0.0 | 0.0 | 0.00 | 0.00 | 0.00 | 95 | 1014.0 |
| 20260903060016 | 72 | 227 | 0.0 | 0.0 | 0.00 | 0.00 | 0.00 | 95 | 1013.9 |
| 20260903055534 | 72 | 227 | 0.0 | 0.0 | 0.00 | 0.00 | 0.00 | 94 | 1013.9 |
| 20260903055037 | 72 | 227 | 0.0 | 0.0 | 0.00 | 0.00 | 0.00 | 94 | 1013.9 |
| 20260903054535 | 72 | 227 | 0.0 | 0.0 | 0.00 | 0.00 | 0.00 | 94 | 1013.9 |
| 20260903054028 | 72 | 227 | 0.0 | 0.0 | 0.00 | 0.00 | 0.00 | 94 | 1013.8 |
| 20260903053520 | 72 | 227 | 0.0 | 0.0 | 0.00 | 0.00 | 0.00 | 94 | 1014.0 |
| 20260903053030 | 72 | 227 | 0.0 | 0.0 | 0.00 | 0.00 | 0.00 | 94 | 1013.9 |
| 20260903052526 | 72 | 227 | 0.0 | 0.0 | 0.00 | 0.00 | 0.00 | 94 | 1013.9 |
| 20260903052020 | 72 | 227 | 0.0 | 0.0 | 0.00 | 0.00 | 0.00 | 94 | 1013.9 |
| 20260903051559 | 72 | 227 | 0.0 | 1.0 | 0.00 | 0.00 | 0.00 | 94 | 1014.0 |
| 20260903051031 | 73 | 227 | 0.0 | 3.0 | 0.00 | 0.00 | 0.00 | 94 | 1014.0 |
| 20260903050524 | 73 | 227 | 2.0 | 3.0 | 0.00 | 0.00 | 0.00 | 94 | 1014.1 |
| 20260903050052 | 73 | 227 | 0.0 | 2.0 | 0.00 | 0.00 | 0.00 | 94 | 1014.1 |
| 20260903045526 | 73 | 227 | 0.0 | 0.0 | 0.00 | 0.00 | 0.00 | 94 | 1014.1 |
| 20260903045020 | 73 | 227 | 0.0 | 0.0 | 0.00 | 0.00 | 0.00 | 94 | 1014.0 |
| 20260903044524 | 73 | 227 | 0.0 | 1.0 | 0.00 | 0.00 | 0.00 | 94 | 1014.1 |
| 20260903044036 | 73 | 227 | 0.0 | 2.0 | 0.00 | 0.00 | 0.00 | 94 | 1014.2 |
| 20260903043533 | 73 | 227 | 2.0 | 2.0 | 0.00 | 0.00 | 0.00 | 93 | 1014.0 |
| 20260903043022 | 73 | 227 | 0.0 | 0.0 | 0.00 | 0.00 | 0.00 | 93 | 1014.0 |
| 20260903042525 | 73 | 227 | 0.0 | 0.0 | 0.00 | 0.00 | 0.00 | 94 | 1014.1 |
| 20260903042033 | 74 | 227 | 0.0 | 0.0 | 0.00 | 0.00 | 0.00 | 94 | 1014.0 |
| 20260903041529 | 74 | 227 | 0.0 | 0.0 | 0.00 | 0.00 | 0.00 | 94 | 1013.9 |
| 20260903041045 | 74 | 227 | 0.0 | 0.0 | 0.00 | 0.00 | 0.00 | 94 | 1014.0 |
| 20260903040521 | 74 | 227 | 0.0 | 0.0 | 0.00 | 0.00 | 0.00 | 94 | 1014.1 |
| 20260903040032 | 74 | 227 | 0.0 | 0.0 | 0.00 | 0.00 | 0.00 | 94 | 1014.1 |
| 20260903035525 | 74 | 227 | 0.0 | 0.0 | 0.00 | 0.00 | 0.00 | 94 | 1014.1 |
| 20260903035040 | 74 | 227 | 0.0 | 0.0 | 0.00 | 0.00 | 0.00 | 93 | 1014.1 |
| 20260903034529 | 74 | 227 | 0.0 | 0.0 | 0.00 | 0.00 | 0.00 | 94 | 1014.0 |
| 20260903024551 | 75 | 227 | 0.0 | 1.0 | 0.00 | 0.00 | 0.00 | 91 | 1013.8 |
| 20260903024042 | 75 | 227 | 0.0 | 1.0 | 0.00 | 0.00 | 0.00 | 91 | 1013.8 |
| 20260903023536 | 75 | 227 | 0.0 | 2.0 | 0.00 | 0.00 | 0.00 | 91 | 1013.8 |
| 20260903023033 | 75 | 227 | 1.0 | 3.0 | 0.00 | 0.00 | 0.00 | 90 | 1013.8 |
| 20260903022531 | 76 | 227 | 2.0 | 3.0 | 0.00 | 0.00 | 0.00 | 90 | 1013.8 |
| 20260903022018 | 76 | 227 | 0.0 | 0.0 | 0.00 | 0.00 | 0.00 | 89 | 1013.7 |
| 20260903021517 | 76 | 227 | 0.0 | 0.0 | 0.00 | 0.00 | 0.00 | 89 | 1013.7 |
| 20260903021022 | 77 | 227 | 0.0 | 0.0 | 0.00 | 0.00 | 0.00 | 90 | 1013.7 |
| 20260903020533 | 77 | 227 | 0.0 | 0.0 | 0.00 | 0.00 | 0.00 | 89 | 1013.5 |
| 20260903020039 | 77 | 227 | 0.0 | 2.0 | 0.00 | 0.00 | 0.00 | 89 | 1013.6 |
| 20260903015552 | 77 | 227 | 1.0 | 2.0 | 0.00 | 0.00 | 0.00 | 89 | 1013.6 |
| 20260903015025 | 77 | 227 | 1.0 | 2.0 | 0.00 | 0.00 | 0.00 | 89 | 1013.7 |
| 20260903014525 | 77 | 227 | 0.0 | 0.0 | 0.00 | 0.00 | 0.00 | 89 | 1013.7 |
| 20260903014023 | 77 | 227 | 0.0 | 0.0 | 0.00 | 0.00 | 0.00 | 89 | 1013.7 |
| 20260903013534 | 77 | 227 | 0.0 | 0.0 | 0.00 | 0.00 | 0.00 | 89 | 1013.6 |
| 20260903013034 | 77 | 227 | 0.0 | 0.0 | 0.00 | 0.00 | 0.00 | 89 | 1013.5 |
| 20260903012525 | 77 | 227 | 0.0 | 0.0 | 0.00 | 0.00 | 0.00 | 88 | 1013.5 |
| 20260903012034 | 77 | 227 | 0.0 | 0.0 | 0.00 | 0.00 | 0.00 | 87 | 1013.4 |
| 20260903011520 | 77 | 227 | 0.0 | 0.0 | 0.00 | 0.00 | 0.00 | 87 | 1013.5 |
| 20260903011054 | 78 | 227 | 0.0 | 0.0 | 0.00 | 0.00 | 0.00 | 86 | 1013.4 |
| 20260903010524 | 78 | 227 | 0.0 | 0.0 | 0.00 | 0.00 | 0.00 | 85 | 1013.3 |
| 20260903010020 | 78 | 227 | 0.0 | 2.0 | 0.00 | 0.00 | 0.00 | 85 | 1013.3 |
| 20260903005533 | 78 | 227 | 1.0 | 2.0 | 0.00 | 0.00 | 0.00 | 85 | 1013.2 |
| 20260903005020 | 79 | 227 | 0.0 | 2.0 | 0.00 | 0.00 | 0.00 | 84 | 1013.1 |
| 20260903004533 | 79 | 227 | 0.0 | 0.0 | 0.00 | 0.00 | 0.00 | 84 | 1013.1 |
| 20260903004028 | 80 | 227 | 0.0 | 0.0 | 0.00 | 0.00 | 0.00 | 83 | 1013.2 |
| 20260903003520 | 80 | 227 | 0.0 | 0.0 | 0.00 | 0.00 | 0.00 | 83 | 1013.1 |
| 20260903003031 | 80 | 227 | 0.0 | 0.0 | 0.00 | 0.00 | 0.00 | 83 | 1013.1 |
| 20260903002526 | 80 | 227 | 0.0 | 2.0 | 0.00 | 0.00 | 0.00 | 82 | 1013.1 |
| 20260903002023 | 81 | 227 | 0.0 | 2.0 | 0.00 | 0.00 | 0.00 | 81 | 1013.3 |
| 20260903001522 | 81 | 227 | 0.0 | 2.0 | 0.00 | 0.00 | 0.00 | 80 | 1013.3 |
| 20260903001055 | 83 | 227 | 0.0 | 2.0 | 0.00 | 0.00 | 0.00 | 77 | 1013.3 |
| 20260903000517 | 83 | 227 | 1.0 | 2.0 | 0.00 | 0.00 | 0.00 | 75 | 1013.3 |
| 20260903000035 | 83 | 227 | 1.0 | 2.0 | 0.00 | 0.00 | 0.00 | 75 | 1013.3 |
| 20260902235526 | 84 | 227 | 1.0 | 3.0 | 0.00 | 0.00 | 0.00 | 74 | 1013.2 |
| 20260902235019 | 84 | 227 | 2.0 | 3.0 | 0.00 | 0.00 | 0.00 | 73 | 1013.2 |
| 20260902234526 | 84 | 227 | 2.0 | 4.0 | 0.00 | 0.00 | 0.00 | 73 | 1013.2 |
| 20260902234036 | 85 | 227 | 3.0 | 5.0 | 0.00 | 0.00 | 0.00 | 71 | 1013.2 |
| 20260902233537 | 85 | 227 | 4.0 | 5.0 | 0.00 | 0.00 | 0.00 | 71 | 1013.2 |
| 20260902233017 | 85 | 227 | 2.0 | 6.0 | 0.00 | 0.00 | 0.00 | 71 | 1013.0 |
| 20260902232518 | 85 | 227 | 4.0 | 6.0 | 0.00 | 0.00 | 0.00 | 72 | 1013.0 |
| 20260902232059 | 85 | 227 | 4.0 | 6.0 | 0.00 | 0.00 | 0.00 | 70 | 1013.0 |
| 20260902231556 | 85 | 227 | 3.0 | 5.0 | 0.00 | 0.00 | 0.00 | 71 | 1013.0 |
| 20260902231029 | 85 | 227 | 3.0 | 5.0 | 0.00 | 0.00 | 0.00 | 71 | 1013.1 |
| 20260902230544 | 86 | 227 | 2.0 | 5.0 | 0.00 | 0.00 | 0.00 | 70 | 1013.2 |
| 20260902230046 | 86 | 227 | 3.0 | 4.0 | 0.00 | 0.00 | 0.00 | 69 | 1013.1 |
| 20260902225536 | 86 | 227 | 3.0 | 4.0 | 0.00 | 0.00 | 0.00 | 68 | 1013.1 |
| 20260902225033 | 86 | 229 | 3.0 | 4.0 | 0.00 | 0.00 | 0.00 | 69 | 1013.1 |
| 20260902224529 | 86 | 229 | 3.0 | 4.0 | 0.00 | 0.00 | 0.00 | 69 | 1013.1 |
| 20260902224025 | 86 | 184 | 3.0 | 4.0 | 0.00 | 0.00 | 0.00 | 71 | 1013.1 |
| 20260902223536 | 86 | 163 | 3.0 | 4.0 | 0.00 | 0.00 | 0.00 | 70 | 1013.0 |
| 20260902223030 | 85 | 240 | 2.0 | 4.0 | 0.00 | 0.00 | 0.00 | 70 | 1013.2 |
| 20260902222523 | 85 | 265 | 2.0 | 4.0 | 0.00 | 0.00 | 0.00 | 71 | 1013.4 |
| 20260902222039 | 85 | 294 | 2.0 | 4.0 | 0.00 | 0.00 | 0.00 | 71 | 1013.3 |
| 20260902221537 | 85 | 294 | 2.0 | 4.0 | 0.00 | 0.00 | 0.00 | 70 | 1013.2 |
| 20260902221035 | 85 | 294 | 2.0 | 4.0 | 0.00 | 0.00 | 0.00 | 71 | 1013.4 |
| 20260902220521 | 85 | 261 | 2.0 | 6.0 | 0.00 | 0.00 | 0.00 | 72 | 1013.1 |
| 20260902220037 | 85 | 261 | 2.0 | 6.0 | 0.00 | 0.00 | 0.00 | 72 | 1013.3 |
| 20260902215518 | 85 | 305 | 1.0 | 5.0 | 0.00 | 0.00 | 0.00 | 74 | 1013.4 |
| 20260902215033 | 85 | 287 | 3.0 | 5.0 | 0.00 | 0.00 | 0.00 | 72 | 1013.5 |
| 20260902214524 | 85 | 296 | 2.0 | 5.0 | 0.00 | 0.00 | 0.00 | 71 | 1013.3 |
| 20260902214059 | 85 | 241 | 2.0 | 5.0 | 0.00 | 0.00 | 0.00 | 72 | 1013.3 |
| 20260902213523 | 85 | 275 | 2.0 | 7.0 | 0.00 | 0.00 | 0.00 | 72 | 1013.3 |
| 20260902213057 | 85 | 233 | 4.0 | 7.0 | 0.00 | 0.00 | 0.00 | 72 | 1013.6 |
| 20260902212532 | 85 | 242 | 4.0 | 9.0 | 0.00 | 0.00 | 0.00 | 71 | 1013.7 |
| 20260902212038 | 85 | 238 | 4.0 | 8.0 | 0.00 | 0.00 | 0.00 | 71 | 1013.9 |
| 20260902211556 | 85 | 271 | 5.0 | 8.0 | 0.00 | 0.00 | 0.00 | 71 | 1013.7 |
| 20260902211032 | 86 | 241 | 3.0 | 8.0 | 0.00 | 0.00 | 0.00 | 71 | 1013.7 |
| 20260902210524 | 86 | 305 | 2.0 | 8.0 | 0.00 | 0.00 | 0.00 | 72 | 1013.5 |
| 20260902210018 | 86 | 269 | 3.0 | 8.0 | 0.00 | 0.00 | 0.00 | 71 | 1013.9 |
| 20260902205531 | 86 | 325 | 4.0 | 7.0 | 0.00 | 0.00 | 0.00 | 71 | 1014.0 |
| 20260902205017 | 86 | 249 | 3.0 | 7.0 | 0.00 | 0.00 | 0.00 | 70 | 1013.8 |
| 20260902204534 | 86 | 263 | 3.0 | 7.0 | 0.00 | 0.00 | 0.00 | 69 | 1013.7 |
| 20260902204046 | 86 | 240 | 3.0 | 7.0 | 0.00 | 0.00 | 0.00 | 69 | 1013.5 |
| 20260902203541 | 86 | 277 | 2.0 | 7.0 | 0.00 | 0.00 | 0.00 | 69 | 1013.5 |
| 20260902203028 | 87 | 233 | 5.0 | 8.0 | 0.00 | 0.00 | 0.00 | 68 | 1013.7 |
| 20260902202521 | 87 | 224 | 5.0 | 8.0 | 0.00 | 0.00 | 0.00 | 67 | 1013.5 |
| 20260902202032 | 87 | 238 | 6.0 | 10.0 | 0.00 | 0.00 | 0.00 | 68 | 1013.7 |
| 20260902201519 | 87 | 213 | 5.0 | 10.0 | 0.00 | 0.00 | 0.00 | 67 | 1013.9 |
| 20260902201033 | 87 | 235 | 5.0 | 9.0 | 0.00 | 0.00 | 0.00 | 70 | 1013.8 |